{"data":{"norad_id":68590,"intl_designator":"2026-072T","name":"KUIPER-00286","alt_names":[],"object_type":"PAYLOAD","status":"ACTIVE","operator":null,"country":"US","launch_date":"2026-04-04","launch_site_code":"AFETR","launch_vehicle":null,"mission":null,"orbit_class":"UNKNOWN","rcs_meters":null,"size_class":null,"mass_kg":null,"dimensions":null,"purposes":[],"wikipedia_slug":null,"has_3d_model":false,"image_url":null,"decayed_at":null,"tle_current":{"epoch":"2026-09-20T03:57:25.543008Z","epoch_age_seconds":95480,"freshness":"FRESH","line1":"1 68590U 26072T   26263.16487897  .00001011  00000+0  16162-3 0  9995","line2":"2 68590  51.9002 110.6780 0000967 133.0739 227.0304 14.79930698 25537","mean_motion":14.79930698,"eccentricity":9.67e-5,"inclination_deg":51.9002,"raan_deg":110.678,"arg_perigee_deg":133.0739,"mean_anomaly_deg":227.0304,"bstar":0.00016162,"rev_number":2553,"period_min":97.301853522333,"perigee_km":628.86525338203,"apogee_km":630.22053867392,"semimajor_km":7007.679896028,"source":"CELESTRAK","updated_at":"2026-09-20T09:00:24.322885Z"}}}